Погода Винницы

Поиск расширенной информации на нашем сайте:

Полезная информация:

Новости сайта



02.01.2020
Опубликован Долгосрочный прогноз погоды по городам России и ближнего зарубежья на январь 2020 года.
Карты: Прогноз на январь и февраль 2020 года, Сравнение прогнозируемой аномалии приземной температуры воздуха на январь 2020 года по разным моделям.




Погода Винницы - сегодня

Время (UTC), дата Ветер
(°,м/с) 
Видим.   Явления Облачность Т
(°С)
Тd
(°С)
f(%) Тe
(°С)
Pmin
(гПа)
dP
(гПа)
Po
(мм)
O2
(г/м3)
Тmin Tmax R s Состояние
почвы
18 29.11.20 080 (В) 50000 м    10/10 330 м 
[St]
-2.9 -3.9 93 -4  1032.1  -1.3  763  311    -2.8       
21 29.11.20 100 (В) 50000 м    10/10 330 м 
[St]
-2.4 -3.5 92 -3  1031.4  -0.6  763  311           
00 30.11.20 090 (В) 50000 м    10/10 400 м 
[St]
-1.7 -2.8 92 -3  1030  -1.4  762  309           
03 30.11.20 140 (ЮВ) 50000 м    10/10 420 м 
[St]
-0.2 -1.6 90 -2  1028.6  -1.3  761  307  -3.6         
06 30.11.20 140 (ЮВ) 50000 м  в посл. час ливневой снег  10/10 300 м кучево-дожд. 
[Cb cap]
+0.4 -0.5 94 -2  1027.5  -1  760  306  -2.9    0.2  <0.5  равномерный
сухой снег
100% 
09 30.11.20 140 (ЮВ) 20000 м    10/10 300 м 
[St]
+0.9 +0.3 96 1026.6  -0.9  759  305           
12 30.11.20 140 (ЮВ) 11000 м  слаб. морось  10/10 330 м 
[St]
+0.9 +0.2 95 1025  -1.6  758  304           
15 30.11.20 150 (ЮВ) 17000 м  слаб. снег{морось}  10/10 420 м 
[Frnb]
+0.7 +0 95 1023.4  -1.6  757  304      0.6     
18 30.11.20 160 (Ю) 18000 м  слаб. снег{морось}  10/10 330 м 
[Frnb]
+0.4 -0.3 95 -1  1022.1  -1.3  756  304    +1     
21 30.11.20 190 (Ю) 50000 м  {снег}  9/9 800 м 
[Sc]
+0.6 -0.5 92 -2  1022.4  0.3  756  304           
00 01.12.20 210 (ЮЗ) 50000 м  {снег}  4/3 600 м средняя 
[Sc|Ac trans]
-0.6 -2.3 88 -2  1022.8  0.4  757  306           
03 01.12.20 170 (Ю) 50000 м    9/9 800 м 
[Sc]
-2.1 -3.2 92 -4  1022.8  -0.1  756  308  -2.2       
06 01.12.20 180 (Ю) 50000 м  {снег}  9/9 750 м 
[Sc]
-1.6 -2.9 91 -4  1023  0.2  757  307  -2.2    0.4  <0.5  равномерный
сухой снег
100% 
09 01.12.20 200 (Ю) 16000 м  слаб. снег  9/9 660 м 
[Sc]
-0.7 -2 91 -3  1023.6  0.7  757  306           
12 01.12.20 210 (ЮЗ) 50000 м  {снег}  9/9 630 м 
[Sc]
-0.2 -1.6 90 -3  1024.6  758  306           
15 01.12.20 220 (ЮЗ) 5{10}  50000 м  {снег}  10/10 630 м 
[Sc]
-0.1 -1.1 93 -3  1026.3  1.6  759  306      0.5     
21 01.12.20 220 (ЮЗ) 5{11}  17000 м  слаб. снег  10/10 420 м 
[Frnb]
-0.4 -1.1 95 -3  1028.5  1.1  761  307           
00 02.12.20 220 (ЮЗ) 5{10}  19000 м  слаб. снег  10/10 420 м 
[Frnb]
-0.5 -1.3 94 -4  1029.7  1.2  762  308           
03 02.12.20 220 (ЮЗ) 50000 м  {снег}  10/10 420 м 
[St]
-0.2 -1.2 93 -2  1030.4  0.7  762  307  -0.6       
06 02.12.20 220 (ЮЗ) 50000 м  {снег}  10/10 300 м 
[St]
-0.3 -0.7 97 -3  1031.3  0.9  763  308  -0.6    равномерный
сухой снег
100% 
09 02.12.20 220 (ЮЗ) 35000 м    10/10 210 м 
[St]
+0 -0.4 97 -2  1032.3  764  308           
12 02.12.20 230 (ЮЗ) 30000 м    10/10 180 м 
[St]
+0 -0.3 98 -2  1032.7  0.4  764  308           
15 02.12.20 230 (ЮЗ) 45000 м    10/10 240 м 
[St]
-0.2 -0.5 98 -2  1032.8  0.1  764  308           
18 02.12.20 210 (ЮЗ) 50000 м    10/10 300 м 
[St]
-0.3 -0.9 96 -1  1033  0.1  764  308    +0.2       
21 02.12.20 190 (Ю) 50000 м    10/10 300 м 
[St]
-0.6 -1.4 94 -1  1032.7  -0.3  764  309           
Время (UTC), дата Ветер
(°,м/с) 
Видим.   Явления Облачность Т
(°С)
Тd
(°С)
f(%) Тe
(°С)
Pmin
(гПа)
dP
(гПа)
Po
(мм)
O2
(г/м3)
Тmin Tmax R s Состояние
почвы

Для получения пояснительной информации подведите курсор к названию столбца.

ПОГОДА Винницы - архив

Всё, что Вы хотите узнать о погоде Винницы - удобно и подробно!

Выберите нужную дату (начиная с 1 января 2019* года) и нажмите кнопку "Найти".
Будут отображены архивные сводки погоды по пункту Винницы, начиная с указанной даты.


Отображать данные в формате CSV (для использования в таблицах Excel)


Внимание! Наш архив погоды предназначен исключительно для личного некоммерческого использования в познавательных целях. Если Вам необходимы официальные справки о состоянии погоды (для производственных, юридических, коммерческих и т.п. целей), обращайтесь в органы Росгидромета.

*Примечание: данная дата относится к архиву по метеостанциям СССР (Россия, СНГ, Балтия).
Архив по метеостанциям Зарубежной Европы и Азии (кроме Китая) хранится 10 дней, по другим регионам земного шара (Китай, Африка, Америка, Австралия, Океания) - 1 день.

Винницы - район местоположения метеостанции


Название, широта, долгота, высота метеостанции:
Винницы 60.6°ш. 34.8°д. 111 м над ур. моря [Российская Федерация]

Дополнительная информация

В oтличие oт бoльшинства пoгoдных сайтoв мы публикуем пoдрoбную метеoинфoрмацию в детальнoм прoфессиoнальнoм фoрмате.

Характеристики температуры и влажнoсти вoздуха измеряются на высoте 2 м в тени вдали oт зданий и деревьев.
Скoрoсть ветра измеряется на высoте 10 м (на урoвне рoста челoвека скoрoсть ветра ниже в 1.5-2 раза). Если метеoстанция нахoдится в гoрoде или в лесу, тo скoрoсть ветра занижена на 2-4 м/с пo сравнению с oткрытым местoм. Скoрoсть ветра над акватoриями крупных рек и oзёр, а также на вершинах хoлмoв на 2-5 м/с выше, чем в oбычных услoвиях.
Атмoсфернoе давление в разных тoчках местнoсти мoжет значительнo oтличаться oт давления на метеoстанции, в зависимoсти oт услoвий рельефа (при пoдъёме на 10 м давление пoнижается примернo на 1 мм рт.ст.).